User: anonymous   Login
Location: Unspecified
(51.6250°N, 0.8230°E)
Time: 06:36:33
(UTC+01:00)
Language:

Okean 3 - Orbit

View from above orbital plane
View from above orbital plane
View from above satellite
View from above satellite

Ground track
Ground track

The orbit data is extracted from the following two-line orbital elements,

1 21397U 91039A   20265.55934109 +.00000167 +00000-0 +13523-4 0  9997
2 21397 082.5189 085.3425 0017144 203.5824 156.4612 14.92957909566608
Epoch (UTC): 21 September 2020 13:25:27
Eccentricity: 0.0017144
inclination: 82.5189°
perigee height: 577 km
apogee height: 600 km
right ascension of ascending node: 85.3425°
argument of perigee: 203.5824°
revolutions per day: 14.92957909
mean anomaly at epoch: 156.4612°
orbit number at epoch: 56660

The dashed part of the orbit path shows where the satellite is in the earth's shadow,  

DLR